Location: Altmatt
(47.1333°N, 8.7000°E)
Time: 02:37:59
(UTC+00:00)

Gbstr 26 Del rocket - Pass Details

Date: 13 July 2020
Orbit: 492 x 1264 km, 51.8° (Epoch: 04 August)

Event Time Altitude Azimuth Distance (km) Brightness Sun altitude
Rises 20:17:34 0° 216° (SW) 2,642 6.2 -8.6°
Reaches altitude 10° 20:19:56 10° 207° (SSW) 1,710 5.1 -8.9°
Maximum altitude 20:23:20 33° 142° (SE) 850 3.2 -9.3°
Drops below altitude 10° 20:26:44 10° 77° (ENE) 1,703 5.0 -9.7°
Sets 20:29:05 0° 67° (ENE) 2,629 6.1 -9.9°
